SCP
0 0 0 0 0 0 0 0 0 0 0 0 0 0 0 0 0 0 0 0 0 0 0 0 0 0 0 0 0 0 0 0 0 0 0 0 0 0
0 0 0 0 0 0 0 0 0 0 0 0 0 0 0 0 0 0 0 0 0 0 0 0 -0 -0 -0 -0 0 0 0 0 0 0 0 0 0 0
0 0 0 0 0 0 0 0 0 0 0 0 0 0 0 0 0 0 0 -0 -0 0 0 0 0 -0 -0 -0 -0 -0 -0 -0 -0 -0 -0 -0 0 0
0 0 0 0 0 0 0 0 0 0 0 0 0 0 0 0 0 0 -0 -0 0 0 0 0 0 0 -0 0 0 0 -0 0 -0 -0 -0 -0 -0 0
0 0 0 0 0 0 0 0 0 0 0 0 0 0 0 0 0 0 0 0 0 -0 -0 0 0 0 0 0 0 0 0 -0 0 -0 -0 -0 -0 -0
0 0 0 0 0 0 0 0 0 0 0 0 0 0 0 0 0 0 0 0 0 0 0 0 0 0 0 0 0 0 0 0 0 0 0 0 0 0
0 0 0 0 0 0 0 0 0 0 0 0 0 0 0 0 0 0 0 0 0 0 0 0 0 0 0 -0 -0 -0 -0 -0 -0 0 0 0 0 0
0 0 0 0 0 0 0 0 0 0 0 0 0 0 0 0 0 0 0 0 0 0 0 0 0 0 0 0 -0 0 0 0 0 -0 -0 -0 -0 0
0 0 0 0 0 0 0 0 0 0 0 0 0 0 0 0 0 0 0 0 0 0 0 0 0 0 0 0 0 0 0 0 0 -0 -0 -0 0 0
0 0 0 0 0 0 0 0 0 0 0 0 0 0 0 0 0 0 0 0 0 0 0 0 0 0 0 0 0 0 0 0 0 0 0 0 0 0
0 0 0 0 0 0 0 0 0 -0 0 0 0 0 0 0 0 0 0 0 0 0 0 0 0 0 0 0 0 0 0 0 0 0 0 0 0 0
0 0 0 0 0 0 0 0 0 0 0 0 0 0 0 0 0 0 0 0 0 0 0 0 0 0 0 0 0 0 0 0 0 0 0 0 0 0
0 0 0 0 0 0 0 0 0 0 0 0 0 0 0 0 0 0 0 0 0 0 0 0 0 0 0 0 0 0 0 0 0 0 0 0 0 0
0 0 0 0 0 0 0 0 0 0 0 0 0 0 0 0 0 0 0 0 0 0 0 0 0 0 0 0 0 0 0 0 0 0 0 0 0 0
0 0 0 0 0 0 0 0 0 0 0 0 0 0 0 0 0 0 0 0 0 0 0 0 0 0 0 0 0 0 0 0 0 0 0 0 0 0
0 0 0 0 0 0 0 0 0 0 0 0 0 0 0 0 0 0 0 0 0 0 0 0 0 0 0 0 0 0 0 0 0 0 0 0 0 0
0 0 0 0 0 0 0 0 0 0 0 0 0 0 0 0 0 0 0 0 0 0 0 0 0 0 0 0 0 0 0 0 0 0 0 0 0 0
0 0 0 0 0 0 0 0 0 0 0 0 0 0 0 0 0 0 0 0 0 0 0 0 0 0 0 0 0 0 0 0 0 0 0 0 0 0
0 0 0 0 0 0 0 0 0 0 0 0 0 0 0 0 0 0 0 0 0 0 0 0 0 0 0 0 0 0 0 0 0 0 0 0 0 0
0 0 0 0 0 0 0 0 0 0 0 0 0 0 0 0 0 0 0 0 0 0 0 0 0 0 0 0 0 0 0 0 0 0 0 0 0 0
0 0 0 0 0 0 0 0 0 0 0 0 0 0 0 0 0 0 0 0 0 0 0 0 0 0 0 0 0 0 0 0 0 0 0 0 0 0
0 0 0 0 0 0 0 0 0 0 0 0 0 0 0 0 0 0 0 0 0 0 0 0 0 0 0 0 0 0 0 0 0 0 0 0 0 0
0 0 0 0 0 0 0 0 0 0 0 0 0 0 0 0 0 0 0 0 0 0 0 0 0 0 0 0 0 0 0 0 0 0 0 0 0 0
Wind_Speed_500mb
29 29 32 29 26 30 40 38 58 46 45 32 22 22 17 13 15 11 8 6 9 8 7 7 10 12 8 4 5 4 3 4 5 7 9 10 12 14
23 17 25 27 21 27 30 38 38 45 45 37 32 20 13 11 17 13 8 14 17 14 14 16 15 12 10 9 7 4 3 5 6 9 11 12 11 10
32 24 23 31 28 27 22 26 37 37 43 39 35 24 16 18 20 15 17 22 19 19 18 17 17 18 15 12 9 7 4 5 8 10 11 13 16 18
36 34 31 32 28 23 22 25 27 28 31 36 36 25 16 13 13 13 23 17 18 18 14 12 10 11 9 8 8 5 4 6 10 14 15 15 16 15
34 35 35 33 29 24 20 22 22 25 27 35 36 25 19 16 19 17 11 10 12 14 14 13 12 8 5 1 6 10 13 14 14 14 16 19 19 15
34 31 29 29 32 29 25 24 27 31 29 30 31 27 24 19 18 17 15 7 12 12 11 11 12 14 15 9 12 14 14 13 18 18 18 18 20 19
30 30 28 27 25 27 30 30 32 35 32 29 26 29 30 27 26 21 15 14 10 8 13 17 17 18 16 16 14 14 9 16 13 10 14 17 19 20
27 28 29 24 24 32 28 31 30 33 32 27 22 19 21 33 36 30 28 27 23 21 19 20 23 22 19 16 19 15 19 24 21 18 19 19 17 21
32 30 32 29 23 21 21 23 26 26 28 30 33 30 22 17 27 36 34 32 28 22 22 23 21 22 19 18 16 20 23 23 27 23 25 20 15 16
34 32 32 31 26 23 22 24 23 28 33 36 37 36 34 30 31 31 31 31 31 29 23 24 15 25 23 20 21 22 25 30 26 17 17 16 14 14
33 30 27 26 29 26 27 31 26 20 19 23 26 26 24 23 23 27 32 34 35 29 25 29 25 21 23 24 23 21 27 25 16 19 15 15 19 23
36 33 31 29 27 27 33 32 33 28 23 27 33 31 28 30 30 28 25 26 28 31 25 26 25 26 31 30 32 25 24 33 36 38 35 31 33 34
43 39 38 41 38 36 37 36 34 24 27 25 27 40 35 33 32 32 30 29 31 38 38 44 40 36 36 37 35 38 41 33 35 33 35 39 41 41
48 45 42 38 33 35 39 39 37 36 33 31 27 29 36 36 31 31 32 35 38 40 35 37 48 45 43 41 43 41 39 29 33 40 42 44 49 48
33 39 43 43 30 25 32 41 40 37 37 38 37 34 33 31 34 38 40 44 45 44 40 43 44 50 45 44 47 48 38 37 31 38 46 49 41 37
30 34 42 51 49 41 37 36 37 48 49 43 41 42 40 41 43 43 43 41 45 45 43 46 47 47 48 50 49 48 39 38 30 31 26 23 21 31
36 35 41 51 59 58 54 48 44 43 53 51 51 51 49 48 45 46 48 51 54 51 48 48 49 47 46 42 46 46 43 39 33 27 31 30 29 27
52 51 46 46 50 53 59 65 58 57 58 59 57 53 51 51 51 53 52 53 57 57 57 50 42 44 49 55 55 53 49 47 39 38 37 37 38 33
41 53 57 54 52 47 45 48 54 56 51 53 55 51 50 58 58 50 49 59 62 64 63 59 55 56 58 62 61 60 57 50 46 46 48 48 43 39
55 51 53 62 62 58 56 54 52 49 54 55 55 57 60 61 63 66 70 69 69 69 69 64 59 59 63 64 60 51 49 51 51 49 50 47 43 45
57 59 63 65 68 69 69 66 63 61 62 66 67 66 68 64 65 68 75 74 75 75 75 73 70 56 52 50 59 64 54 51 51 49 46 48 51 49
71 68 65 65 70 74 76 76 76 73 70 68 69 69 68 69 74 80 77 75 80 80 80 80 75 64 63 65 71 68 60 52 47 52 56 56 54 55
67 68 75 73 71 69 66 62 64 70 70 66 66 69 68 65 60 68 75 80 81 90 91 90 84 77 77 73 74 73 67 60 57 62 64 59 58 55
Wind_Direction_500mb
223 229 228 200 199 200 198 203 190 182 187 196 207 210 215 230 242 214 225 225 174 141 126 116 108 110 114 96 74 46 17 359 344 337 331 324 326 315
214 210 201 183 183 193 199 204 201 199 191 203 204 218 215 215 209 208 223 186 156 130 110 105 102 98 107 106 93 71 33 16 358 352 342 335 333 320
212 202 196 195 191 188 182 183 203 213 209 196 199 191 207 227 211 192 175 156 154 134 120 118 93 83 84 82 76 57 38 53 35 14 358 344 341 334
195 190 190 185 193 201 213 216 215 215 214 188 180 188 169 179 179 194 190 185 175 168 166 159 133 107 99 89 68 39 43 10 15 7 359 352 345 336
193 198 204 205 209 214 211 198 188 176 171 170 166 163 174 161 167 158 152 175 193 203 217 228 228 193 191 212 285 301 294 291 302 317 328 338 327 325
205 210 211 212 215 217 210 185 172 173 170 169 181 185 190 194 178 181 182 219 229 213 216 219 223 235 226 230 276 286 290 281 278 282 299 319 327 310
215 215 211 202 204 208 206 192 182 178 180 187 193 202 209 216 213 193 207 197 242 220 222 214 214 220 218 239 264 290 252 294 288 292 282 300 317 314
210 210 203 199 199 201 201 202 200 200 198 209 205 195 213 223 214 214 215 220 222 230 230 241 253 257 260 244 255 269 274 286 276 274 281 283 300 322
213 208 200 199 192 193 201 204 210 214 219 216 220 219 220 199 203 209 217 229 241 253 273 269 250 242 232 240 252 260 284 299 291 278 273 269 287 307
221 215 208 210 200 200 228 228 234 241 237 233 232 233 241 232 232 235 241 250 261 270 265 274 268 255 248 253 259 272 273 292 301 266 251 274 270 291
203 199 203 208 211 220 238 226 233 228 225 213 197 193 193 202 222 236 248 255 259 258 251 268 282 287 261 266 271 266 280 286 270 278 266 269 282 281
212 214 218 224 218 229 231 233 247 251 254 241 227 212 219 222 225 236 243 250 256 269 262 271 282 286 290 286 278 262 281 271 275 269 266 258 253 262
224 225 229 234 238 234 239 245 253 263 265 256 241 221 220 223 223 233 241 251 264 271 283 279 275 283 282 277 278 283 296 278 260 255 261 267 264 258
233 233 221 225 239 243 243 246 254 258 257 249 246 237 232 229 230 236 249 260 265 273 283 272 265 270 278 269 273 285 295 278 263 260 262 265 267 261
237 227 225 231 239 238 235 238 248 246 249 252 253 250 246 248 254 259 265 270 264 268 272 262 256 263 273 275 278 280 272 271 263 269 269 271 270 246
235 232 232 235 235 235 238 233 245 243 247 255 261 263 262 262 264 264 261 252 258 267 274 264 261 258 263 266 272 275 268 260 281 282 265 252 245 244
244 238 237 237 240 242 241 243 248 248 242 254 264 268 267 268 268 258 262 262 259 268 273 274 275 264 258 263 262 268 267 262 280 251 251 250 243 246
249 245 245 247 244 241 243 245 246 249 253 259 262 265 267 268 270 269 268 267 267 269 268 270 268 257 258 258 261 266 262 260 267 250 255 253 250 251
255 244 241 248 248 244 242 242 247 252 250 254 260 263 272 273 268 271 280 275 268 267 263 263 258 256 254 256 268 270 263 262 263 255 255 259 260 265
261 258 254 250 246 247 246 246 249 252 254 258 261 271 277 272 270 275 279 273 265 263 262 258 255 253 255 268 279 276 269 269 257 262 256 255 256 261
262 261 259 256 254 252 249 250 254 258 261 263 266 269 272 268 269 275 284 284 269 263 261 260 269 278 272 262 258 259 265 266 263 260 256 257 265 270
257 259 260 262 262 259 256 256 259 262 263 263 264 267 272 275 275 276 277 279 271 263 261 270 270 261 254 257 256 255 262 266 258 247 253 259 262 269
259 260 259 261 266 269 270 265 261 256 257 260 261 265 269 267 273 275 271 273 280 272 263 266 264 258 253 256 252 252 253 253 248 247 250 256 260 271
Wind_Speed_850mb
29 29 32 29 26 30 40 38 58 46 45 32 22 22 17 13 15 11 8 6 9 8 7 7 10 12 8 4 5 4 3 4 5 7 9 10 12 14
23 17 25 27 21 27 30 38 38 45 45 37 32 20 13 11 17 13 8 14 17 14 14 16 15 12 10 9 7 4 3 5 6 9 11 12 11 10
32 24 23 31 28 27 22 26 37 37 43 39 35 24 16 18 20 15 17 22 19 19 18 17 17 18 15 12 9 7 4 5 8 10 11 13 16 18
36 34 31 32 28 23 22 25 27 28 31 36 36 25 16 13 13 13 23 17 18 18 14 12 10 11 9 8 8 5 4 6 10 14 15 15 16 15
34 35 35 33 29 24 20 22 22 25 27 35 36 25 19 16 19 17 11 10 12 14 14 13 12 8 5 1 6 10 13 14 14 14 16 19 19 15
34 31 29 29 32 29 25 24 27 31 29 30 31 27 24 19 18 17 15 7 12 12 11 11 12 14 15 9 12 14 14 13 18 18 18 18 20 19
30 30 28 27 25 27 30 30 32 35 32 29 26 29 30 27 26 21 15 14 10 8 13 17 17 18 16 16 14 14 9 16 13 10 14 17 19 20
27 28 29 24 24 32 28 31 30 33 32 27 22 19 21 33 36 30 28 27 23 21 19 20 23 22 19 16 19 15 19 24 21 18 19 19 17 21
32 30 32 29 23 21 21 23 26 26 28 30 33 30 22 17 27 36 34 32 28 22 22 23 21 22 19 18 16 20 23 23 27 23 25 20 15 16
34 32 32 31 26 23 22 24 23 28 33 36 37 36 34 30 31 31 31 31 31 29 23 24 15 25 23 20 21 22 25 30 26 17 17 16 14 14
33 30 27 26 29 26 27 31 26 20 19 23 26 26 24 23 23 27 32 34 35 29 25 29 25 21 23 24 23 21 27 25 16 19 15 15 19 23
36 33 31 29 27 27 33 32 33 28 23 27 33 31 28 30 30 28 25 26 28 31 25 26 25 26 31 30 32 25 24 33 36 38 35 31 33 34
43 39 38 41 38 36 37 36 34 24 27 25 27 40 35 33 32 32 30 29 31 38 38 44 40 36 36 37 35 38 41 33 35 33 35 39 41 41
48 45 42 38 33 35 39 39 37 36 33 31 27 29 36 36 31 31 32 35 38 40 35 37 48 45 43 41 43 41 39 29 33 40 42 44 49 48
33 39 43 43 30 25 32 41 40 37 37 38 37 34 33 31 34 38 40 44 45 44 40 43 44 50 45 44 47 48 38 37 31 38 46 49 41 37
30 34 42 51 49 41 37 36 37 48 49 43 41 42 40 41 43 43 43 41 45 45 43 46 47 47 48 50 49 48 39 38 30 31 26 23 21 31
36 35 41 51 59 58 54 48 44 43 53 51 51 51 49 48 45 46 48 51 54 51 48 48 49 47 46 42 46 46 43 39 33 27 31 30 29 27
52 51 46 46 50 53 59 65 58 57 58 59 57 53 51 51 51 53 52 53 57 57 57 50 42 44 49 55 55 53 49 47 39 38 37 37 38 33
41 53 57 54 52 47 45 48 54 56 51 53 55 51 50 58 58 50 49 59 62 64 63 59 55 56 58 62 61 60 57 50 46 46 48 48 43 39
55 51 53 62 62 58 56 54 52 49 54 55 55 57 60 61 63 66 70 69 69 69 69 64 59 59 63 64 60 51 49 51 51 49 50 47 43 45
57 59 63 65 68 69 69 66 63 61 62 66 67 66 68 64 65 68 75 74 75 75 75 73 70 56 52 50 59 64 54 51 51 49 46 48 51 49
71 68 65 65 70 74 76 76 76 73 70 68 69 69 68 69 74 80 77 75 80 80 80 80 75 64 63 65 71 68 60 52 47 52 56 56 54 55
67 68 75 73 71 69 66 62 64 70 70 66 66 69 68 65 60 68 75 80 81 90 91 90 84 77 77 73 74 73 67 60 57 62 64 59 58 55
Wind_Direction_850mb
223 229 228 200 199 200 198 203 190 182 187 196 207 210 215 230 242 214 225 225 174 141 126 116 108 110 114 96 74 46 17 359 344 337 331 324 326 315
214 210 201 183 183 193 199 204 201 199 191 203 204 218 215 215 209 208 223 186 156 130 110 105 102 98 107 106 93 71 33 16 358 352 342 335 333 320
212 202 196 195 191 188 182 183 203 213 209 196 199 191 207 227 211 192 175 156 154 134 120 118 93 83 84 82 76 57 38 53 35 14 358 344 341 334
195 190 190 185 193 201 213 216 215 215 214 188 180 188 169 179 179 194 190 185 175 168 166 159 133 107 99 89 68 39 43 10 15 7 359 352 345 336
193 198 204 205 209 214 211 198 188 176 171 170 166 163 174 161 167 158 152 175 193 203 217 228 228 193 191 212 285 301 294 291 302 317 328 338 327 325
205 210 211 212 215 217 210 185 172 173 170 169 181 185 190 194 178 181 182 219 229 213 216 219 223 235 226 230 276 286 290 281 278 282 299 319 327 310
215 215 211 202 204 208 206 192 182 178 180 187 193 202 209 216 213 193 207 197 242 220 222 214 214 220 218 239 264 290 252 294 288 292 282 300 317 314
210 210 203 199 199 201 201 202 200 200 198 209 205 195 213 223 214 214 215 220 222 230 230 241 253 257 260 244 255 269 274 286 276 274 281 283 300 322
213 208 200 199 192 193 201 204 210 214 219 216 220 219 220 199 203 209 217 229 241 253 273 269 250 242 232 240 252 260 284 299 291 278 273 269 287 307
221 215 208 210 200 200 228 228 234 241 237 233 232 233 241 232 232 235 241 250 261 270 265 274 268 255 248 253 259 272 273 292 301 266 251 274 270 291
203 199 203 208 211 220 238 226 233 228 225 213 197 193 193 202 222 236 248 255 259 258 251 268 282 287 261 266 271 266 280 286 270 278 266 269 282 281
212 214 218 224 218 229 231 233 247 251 254 241 227 212 219 222 225 236 243 250 256 269 262 271 282 286 290 286 278 262 281 271 275 269 266 258 253 262
224 225 229 234 238 234 239 245 253 263 265 256 241 221 220 223 223 233 241 251 264 271 283 279 275 283 282 277 278 283 296 278 260 255 261 267 264 258
233 233 221 225 239 243 243 246 254 258 257 249 246 237 232 229 230 236 249 260 265 273 283 272 265 270 278 269 273 285 295 278 263 260 262 265 267 261
237 227 225 231 239 238 235 238 248 246 249 252 253 250 246 248 254 259 265 270 264 268 272 262 256 263 273 275 278 280 272 271 263 269 269 271 270 246
235 232 232 235 235 235 238 233 245 243 247 255 261 263 262 262 264 264 261 252 258 267 274 264 261 258 263 266 272 275 268 260 281 282 265 252 245 244
244 238 237 237 240 242 241 243 248 248 242 254 264 268 267 268 268 258 262 262 259 268 273 274 275 264 258 263 262 268 267 262 280 251 251 250 243 246
249 245 245 247 244 241 243 245 246 249 253 259 262 265 267 268 270 269 268 267 267 269 268 270 268 257 258 258 261 266 262 260 267 250 255 253 250 251
255 244 241 248 248 244 242 242 247 252 250 254 260 263 272 273 268 271 280 275 268 267 263 263 258 256 254 256 268 270 263 262 263 255 255 259 260 265
261 258 254 250 246 247 246 246 249 252 254 258 261 271 277 272 270 275 279 273 265 263 262 258 255 253 255 268 279 276 269 269 257 262 256 255 256 261
262 261 259 256 254 252 249 250 254 258 261 263 266 269 272 268 269 275 284 284 269 263 261 260 269 278 272 262 258 259 265 266 263 260 256 257 265 270
257 259 260 262 262 259 256 256 259 262 263 263 264 267 272 275 275 276 277 279 271 263 261 270 270 261 254 257 256 255 262 266 258 247 253 259 262 269
259 260 259 261 266 269 270 265 261 256 257 260 261 265 269 267 273 275 271 273 280 272 263 266 264 258 253 256 252 252 253 253 248 247 250 256 260 271